Garrison, ND

5:14 PM CDT on April 28, 2017 (GMT -0500)
Garrison

Weather History for KN60 - January, 2014

Change the Weather History Date:

Thursday, January 23, 2014

  Actual Average Record
Temperature  
Mean Temperature 2 °F -  
Max Temperature 21 °F - 43 °F (2015)
Min Temperature -17 °F - 19 °F (2017)
Degree Days  
Heating Degree Days 63    
Month to date heating degree days 1208  
Cooling Degree Days 0    
Moisture  
Dew Point -1 °F    
Average Humidity 77    
Maximum Humidity 87    
Minimum Humidity 67    
Precipitation  
Precipitation 0.00 in - 0.00 in (2017)
Month to date precipitation 0.41  
Year to date precipitation 0.41  
Sea Level Pressure  
Sea Level Pressure 30.48 in    
Wind  
Wind Speed 7 mph (WSW)    
Max Wind Speed 21 mph    
Max Gust Speed 24 mph    
T = Trace of Precipitation, MM = Missing Value Source: NWS Daily Summary

Daily Weather History Graph

Daily Weather History Graph

Search for Another Location

Airport or City:

Trip Planner

Search our weather history database for the weather conditions in past years. The results will help you decide how hot, cold, wet, or windy it might be!

Date:

Astronomy

Jan. 23, 2014 Rise Set
Actual Time 8:22 AM CST 5:33 PM CST
Civil Twilight 7:48 AM CST 6:07 PM CST
Nautical Twilight 7:11 AM CST 6:44 PM CST
Astronomical Twilight 6:34 AM CST 7:21 PM CST
Moon 12:37 AM CST (1/23) 11:25 AM CST (1/23)
Length of Visible Light 10h 18m
Length of Day
9h 10m
Waning Gibbous, 55% of the Moon is Illuminated
Jan 23
Waning Gibbous
Jan 23
Last Quarter
Jan 30
New
Feb 6
First Quarter
Feb 14
Full

Hourly Weather History & Observations

Time (CST) Temp. Windchill Dew Point Humidity Pressure Visibility Wind Dir Wind Speed Gust Speed Precip Events Conditions
12:52 AM -11.9 °F -25.7 °F -18.0 °F 74% 30.84 in - NW 5.8 mph - N/A   Unknown
1:52 AM -14.1 °F -23.9 °F -18.9 °F 79% 30.82 in - North 3.5 mph - N/A   Unknown
2:52 AM -11.9 °F -21.5 °F -17.0 °F 78% 30.82 in - West 3.5 mph - N/A   Unknown
3:52 AM -15.0 °F -27.4 °F -18.9 °F 82% 30.83 in - West 4.6 mph - N/A   Unknown
4:52 AM -15.0 °F - -20.0 °F 78% 30.81 in - Calm Calm - N/A   Unknown
5:52 AM -16.1 °F - -20.0 °F 82% 30.80 in - Calm Calm - N/A   Unknown
6:52 AM -14.1 °F -23.9 °F -18.9 °F 79% 30.79 in - WSW 3.5 mph - N/A   Unknown
7:52 AM -13.0 °F - -17.0 °F 82% 30.77 in - Calm Calm - N/A   Unknown
8:52 AM -14.1 °F -26.3 °F -18.0 °F 82% 30.75 in - SSW 4.6 mph - N/A   Unknown
9:52 AM -9.0 °F -22.3 °F -13.0 °F 83% 30.69 in - South 5.8 mph - N/A   Unknown
10:52 AM -2.0 °F -18.7 °F -8.0 °F 76% 30.65 in - SW 10.4 mph - N/A   Unknown
11:52 AM 3.0 °F -11.5 °F -2.9 °F 76% 30.60 in - SSW 9.2 mph - N/A   Unknown
12:52 PM 7.0 °F -8.3 °F 1.0 °F 77% 30.54 in - SW 11.5 mph - N/A   Unknown
1:52 PM 12.9 °F -2.8 °F 5.0 °F 71% 30.48 in - WSW 15.0 mph - N/A   Unknown
2:52 PM 16.0 °F 1.1 °F 8.1 °F 71% 30.38 in - SW 15.0 mph - N/A   Unknown
3:52 PM 17.1 °F 3.0 °F 9.0 °F 71% 30.34 in - SW 13.8 mph - N/A   Unknown
4:52 PM 18.0 °F 4.8 °F 10.9 °F 74% 30.29 in - SW 12.7 mph - N/A   Unknown
5:52 PM 19.9 °F 5.7 °F 12.9 °F 74% 30.21 in - SW 16.1 mph - N/A   Unknown
6:52 PM 23.0 °F 9.6 °F 15.1 °F 72% 30.15 in - WSW 16.1 mph - 0.01 in   Unknown
7:52 PM 25.0 °F 11.3 °F 16.0 °F 69% 30.09 in - WSW 18.4 mph - N/A   Unknown
8:52 PM 25.0 °F 10.9 °F 18.0 °F 75% 30.05 in - WSW 19.6 mph - N/A   Unknown
9:52 PM 27.0 °F 14.7 °F 19.0 °F 72% 30.00 in - WSW 16.1 mph - N/A   Unknown
10:52 PM 28.9 °F 16.9 °F 19.9 °F 69% 29.97 in - West 17.3 mph - 0.01 in   Unknown
11:52 PM 33.1 °F 21.2 °F 24.1 °F 70% 29.94 in - WNW 20.7 mph 31.1 mph N/A   Unknown